Weather observations for the past three days for
Charleston, Yeager Airport
Imperial (Metric)
Date Time (edt) Wind (mph) Vis. (mi.) Weather Sky Cond. Temperature (ºF) Relative Humidity Wind Chill (°F) Heat Index (°F) Pressure Precipitation (in)
Air Dwpt 6 hour altimeter (in) sea level (mb) 1 hr 3 hr 6 hr
Max. Min.
17 06:54 Calm 10.00 Mostly Cloudy FEW000 SCT050 BKN110 70 68 93% 29.96 1013.6
17 05:54 Calm 10.00 Mostly Cloudy FEW000 BKN100 BKN200 69.1 66.9 93% 29.93 1012.7
17 04:54 Calm 4.00 Fog/Mist SCT000 69.1 66.9 93% 29.92 1012.2
17 03:54 Calm 6.00 Fog/Mist FEW000 69.1 68 96% 29.91 1011.9
17 02:54 Calm 6.00 Fog/Mist FEW000 69.1 68 96% 29.92 1012.0
17 01:54 Calm 10.00 Partly Cloudy FEW001 SCT170 70 68 73.9 70 93% 29.93 1012.2
17 00:54 Calm 10.00 Partly Cloudy FEW001 SCT170 71.1 69.1 94% 29.94 1012.6
16 23:54 Calm 10.00 A Few Clouds FEW110 73 68 84% 29.93 1012.3
16 22:54 SE 5 10.00 A Few Clouds FEW110 73 68 84% 29.92 1012.1
16 21:54 SW 6 10.00 Partly Cloudy SCT110 73 69.1 87% 29.94 1012.7
16 20:54 Vrbl 5 10.00 Partly Cloudy FEW080 SCT110 73.9 70 88% 29.94 1012.8
16 19:54 S 8 10.00 Mostly Cloudy FEW090 BKN110 75 71.1 98.1 73 88% 75 29.93 1012.5 0.03 0.46
16 18:54 SE 7 6.00 Rain Fog/Mist BKN110 73.9 71.1 91% 29.94 1013.0 0.11
16 17:54 NW 10 G 22 4.00 Rain Fog/Mist FEW018 FEW050 BKN095 75 71.1 88% 75 29.95 1013.3
16 16:54 W 6 7.00 Thunderstorm Light Rain FEW020CB BKN060 OVC075 75 68 79% 76 29.92 1012.3 0.32 0.32
16 15:54 NW 16 G 35 10.00 Mostly Cloudy BKN060 84.9 66 53% 87 29.88 1010.9
16 14:54 W 9 G 20 10.00 Mostly Cloudy BKN070 95 64 36% 97 29.87 1010.2
16 13:54 S 14 G 23 10.00 Partly Cloudy SCT055 95 64 97 79 36% 97 29.88 1010.6
16 12:54 SW 14 G 21 10.00 Partly Cloudy FEW045 SCT250 93 66 41% 96 29.91 1011.5
16 11:54 SW 12 G 25 10.00 Partly Cloudy SCT041 91 68 47% 95 29.93 1012.4
16 10:54 W 9 10.00 Mostly Cloudy BKN037 86 69.1 57% 90 29.95 1012.9
16 09:54 SW 10 10.00 Partly Cloudy FEW038 SCT250 86 69.1 57% 90 29.94 1012.8
16 08:54 SW 9 10.00 Partly Cloudy SCT250 82.9 69.1 63% 87 29.93 1012.5
16 07:54 S 6 10.00 Mostly Cloudy SCT120 BKN200 80.1 68 80.1 72 67% 83 29.92 1012.0
16 06:54 S 5 10.00 Mostly Cloudy FEW043 BKN130 BKN200 73.9 68 82% 29.92 1012.1
16 05:54 Calm 10.00 Mostly Cloudy BKN140 72 68 87% 29.93 1012.3
16 04:54 Calm 10.00 Fair CLR 73 69.1 87% 29.92 1011.8
16 03:54 Calm 10.00 Fair CLR 73 68 84% 29.91 1011.6
16 02:54 Calm 10.00 Fair CLR 75 68 79% 76 29.92 1011.9
16 01:54 Calm 10.00 Fair CLR 75.9 68 93 75.9 77% 77 29.92 1012.0
16 00:54 Calm 10.00 Fair CLR 77 69.1 77% 79 29.91 1011.7
15 23:54 Calm 10.00 Fair CLR 78.1 69.1 74% 80 29.9 1011.1
15 22:54 Calm 10.00 A Few Clouds FEW070 81 68 65% 84 29.9 1011.1
15 21:54 Calm 10.00 A Few Clouds FEW070 84 68 59% 87 29.9 1011.4
15 20:54 Calm 10.00 A Few Clouds FEW070 89.1 64.9 45% 91 29.89 1010.9
15 19:54 NW 3 10.00 A Few Clouds FEW070 93 64.9 99 93 40% 95 29.9 1011.5
15 18:54 W 10 G 20 10.00 Mostly Cloudy BKN070 BKN080 BKN100 95 63 35% 96 29.9 1011.3
15 17:54 Vrbl 7 G 16 10.00 Partly Cloudy SCT070 97 63 33% 99 29.9 1011.4
15 16:54 W 10 G 18 10.00 Partly Cloudy SCT070 97 62.1 32% 98 29.91 1011.6
15 15:54 Vrbl 6 G 18 10.00 Partly Cloudy SCT070 SCT200 93.9 63 36% 95 29.94 1012.6
15 14:54 SW 12 G 18 10.00 Mostly Cloudy BKN070 BKN180 97 64 34% 99 29.96 1013.3
15 13:54 SW 8 G 18 10.00 Partly Cloudy SCT065 93.9 64.9 96.1 69.1 38% 96 29.98 1014.0
15 12:54 S 14 G 20 10.00 Partly Cloudy SCT055 SCT200 91.9 66.9 44% 95 30.01 1015.0
15 11:54 SW 7 10.00 Partly Cloudy FEW042 SCT180 89.1 69.1 52% 94 30.02 1015.5
15 10:54 Vrbl 5 10.00 Partly Cloudy SCT040 86 68 55% 89 30.05 1016.4
15 09:54 SW 5 10.00 A Few Clouds FEW180 82 66.9 60% 85 30.06 1016.9
15 08:54 Calm 10.00 Partly Cloudy SCT180 77 66.9 71% 79 30.07 1017.2
15 07:54 Calm 10.00 A Few Clouds FEW000 FEW120 69.1 64 69.1 66 84% 30.05 1017.0
15 06:54 Calm 10.00 A Few Clouds FEW000 66.9 64 91% 30.05 1016.4
15 05:54 Calm 10.00 Partly Cloudy FEW000 SCT120 66 63 90% 30.02 1015.4
15 04:54 Calm 10.00 Partly Cloudy FEW001 SCT120 66.9 64 91% 30.03 1015.7
15 03:54 Calm 10.00 A Few Clouds FEW001 66.9 64 91% 30.02 1015.3
15 02:54 Calm 10.00 Fair CLR 66.9 64 91% 30.02 1015.4
15 01:54 Calm 10.00 Fair CLR 68 64.9 73 68 90% 30.03 1015.7
15 00:54 E 3 10.00 Fair CLR 68 64.9 90% 30.03 1015.9
14 23:54 Calm 10.00 Fair CLR 69.1 66 90% 30.05 1016.5
14 22:54 Calm 10.00 A Few Clouds FEW160 70 66 87% 30.06 1017.0
14 21:54 SE 5 10.00 Partly Cloudy SCT140 SCT160 70 66.9 90% 30.07 1017.3
14 20:54 S 5 10.00 Mostly Cloudy FEW095 BKN130 BKN170 72 66 82% 30.06 1017.0
14 19:54 SE 8 10.00 Mostly Cloudy SCT048 SCT095 BKN120 BKN200 73 66.9 97 73 81% 30.08 1017.6 0.04 0.04
14 18:54 W 8 10.00 Mostly Cloudy SCT065CB SCT100 BKN120 BKN200 91 62.1 38% 92 30.05 1016.7
14 17:54 NW 9 G 20 10.00 Partly Cloudy SCT070 SCT100 93.9 62.1 35% 95 30.05 1016.5
14 16:54 Vrbl 6 10.00 Partly Cloudy SCT075 93.9 59 31% 93 30.06 1016.7
14 15:54 SW 12 G 21 10.00 Partly Cloudy SCT070 95 57.9 29% 94 30.06 1016.8
14 14:54 NW 8 10.00 Mostly Cloudy BKN065 93.9 60.1 32% 94 30.07 1017.2
14 13:54 SW 10 G 17 10.00 Mostly Cloudy BKN060 91 60.1 93 71.1 35% 91 30.1 1018.0
14 12:54 Vrbl 7 10.00 Mostly Cloudy BKN055 91 61 37% 91 30.12 1019.0
14 11:54 Vrbl 5 10.00 A Few Clouds FEW065 90 64 42% 91 30.14 1019.4
14 10:54 Vrbl 6 10.00 Fair CLR 84.9 64 50% 86 30.14 1019.7
14 09:54 SW 7 10.00 Fair CLR 82 64 55% 84 30.15 1019.8
14 08:54 Calm 10.00 Fair CLR 77 64.9 66% 79 30.16 1020.1
14 07:54 Calm 10.00 Fair CLR 71.1 64 71.1 66 79% 30.15 1020.0
Date Time (edt) Wind (mph) Vis. (mi.) Weather Sky Cond. Air Dwpt Max. Min. Relative Humidity Wind Chill (°F) Heat Index (°F) altimeter (in) sea level (mb) 1 hr 3 hr 6 hr
6 hour
Temperature (ºF) Pressure Precipitation (in)